CAPE
650 289 142 230 33 5 2 3 4 1 0 0 0 0 1 0 0 0 0 0 0 0 2 6 4 7 16 23 21 19 19 27 25 10 22 25 29 30 24 28 22 6 0
639 335 222 5 0 0 1 0 0 0 0 0 0 0 0 0 0 0 0 0 0 0 2 4 9 11 27 31 27 24 29 34 38 32 40 44 45 31 14 28 19 1 0
197 3 0 0 0 3 0 3 0 0 1 0 0 0 0 0 0 0 0 0 0 0 2 4 8 16 23 21 23 23 31 28 43 29 30 40 24 22 14 33 24 10 0
4 3 3 3 2 3 1 0 0 0 0 0 0 0 0 0 0 0 0 0 0 0 1 2 5 11 13 18 19 23 30 38 29 27 20 32 32 33 33 30 24 11 1
2 2 2 3 0 0 0 0 0 0 0 0 0 0 0 0 0 0 0 0 0 0 0 3 13 11 0 1 1 6 20 23 18 16 38 27 28 25 25 32 24 14 5
2 2 6 1 0 0 0 0 0 0 0 0 0 0 0 0 0 0 0 0 0 0 0 2 6 5 0 0 0 0 0 7 24 84 46 40 42 28 35 37 36 17 8
1 2 0 0 0 0 0 0 0 0 0 0 0 0 0 0 0 0 0 0 0 0 0 1 3 2 5 19 14 0 0 0 0 37 50 42 36 50 40 35 26 18 14
0 0 0 0 0 0 0 0 0 2 0 0 0 0 0 0 0 0 0 0 0 0 2 7 13 20 26 24 40 31 28 20 6 3 14 32 24 24 21 30 21 22 17
0 0 0 0 0 0 0 0 0 0 0 0 0 0 0 0 0 0 0 0 2 4 8 15 25 39 19 2 28 21 21 16 4 0 0 0 0 0 0 8 20 28 33
0 0 0 0 0 0 0 0 0 0 0 0 0 0 0 0 0 0 0 5 8 22 23 28 16 7 0 0 20 60 49 19 20 23 6 0 0 4 0 1 20 27 30
0 0 0 0 0 0 0 0 0 0 0 0 0 0 0 0 0 0 0 6 9 19 13 24 30 18 0 0 0 34 31 26 19 38 27 17 13 18 17 16 16 29 36
0 0 0 0 0 0 0 0 0 0 0 0 10 0 0 1 0 0 0 4 7 35 19 17 33 19 25 0 2 4 0 3 76 83 53 20 18 17 11 26 24 33 30
0 0 0 0 0 0 0 0 0 0 0 0 0 1 3 3 3 0 2 2 2 39 52 37 0 0 0 5 0 0 0 13 31 66 44 40 25 23 17 27 20 13 13
0 0 0 0 0 0 0 0 0 0 0 0 0 3 11 6 10 15 16 30 20 31 24 44 28 1 1 5 19 11 29 42 70 76 57 43 31 59 34 15 17 19 30
0 0 0 0 0 0 0 0 0 0 0 1 5 8 14 18 10 10 9 13 17 16 15 51 62 59 49 32 35 25 27 11 19 55 48 36 55 52 31 29 22 13 20
0 0 0 0 0 0 0 0 0 0 0 0 0 4 6 3 1 2 1 0 1 0 15 48 95 144 75 50 44 31 21 14 11 15 28 17 30 44 33 38 21 18 23
0 0 0 0 0 0 0 0 0 0 0 0 0 0 0 1 1 1 1 0 0 0 13 13 16 20 23 19 69 79 84 37 34 35 36 17 23 20 52 32 35 30 28
0 0 0 0 0 0 0 0 0 2 4 5 0 0 0 0 1 1 1 1 3 4 10 14 17 17 13 11 11 8 56 81 72 34 41 39 35 26 38 19 28 35 30
0 0 0 0 0 0 0 0 1 2 4 4 4 2 2 0 0 1 2 15 13 12 10 11 15 13 15 14 19 15 18 24 55 76 44 39 52 31 27 27 32 17 13
0 0 0 0 0 0 0 1 1 3 4 6 8 10 7 2 14 16 17 19 18 14 15 14 14 12 17 17 18 17 16 17 9 42 50 45 59 36 23 28 37 43 13
0 0 0 0 0 0 1 2 2 5 5 7 9 8 0 5 16 17 15 17 16 15 15 15 15 14 16 17 14 13 13 18 15 11 15 53 49 44 23 30 42 27 15
0 0 0 0 0 3 2 2 5 6 6 7 9 6 0 10 14 14 14 15 19 18 17 17 17 14 15 16 16 14 12 12 14 13 11 5 11 52 35 29 28 25 12
0 0 0 0 1 0 3 3 8 8 8 9 9 9 12 14 12 13 15 16 18 15 15 15 16 12 11 12 14 16 13 12 15 15 11 8 5 7 48 32 25 18 13
0 0 0 0 2 2 6 8 9 1 5 10 13 14 13 12 14 12 13 17 13 16 13 13 11 11 10 10 15 12 9 9 10 9 7 8 6 4 19 35 23 14 10
3 3 3 4 6 7 8 9 10 12 12 11 13 13 10 12 11 15 15 13 8 11 8 8 10 10 6 4 5 5 4 2 4 2 5 8 6 8 6 32 29 12 8
5 5 6 9 10 10 11 13 12 11 11 10 10 10 11 12 13 14 11 9 8 6 6 9 8 6 6 7 6 4 1 1 4 1 8 7 8 6 5 22 26 15 6
CIN
-92 -119 -116 -40 -62 -0 -0 -0 -0 -0 -0 -0 -0 -0 -0 -0 -0 -0 -0 -0 -0 -0 -0 -0 -0 -0 -0 -0 -0 -0 -0 -0 -0 -0 -0 -0 -0 -0 -0 -0 -0 -0 -0
-69 -89 -67 -2 -0 -0 -0 -0 -0 -0 -0 -0 -0 -0 -0 -0 -0 -0 -0 -0 -0 -0 -0 -0 -0 -0 -0 -0 -0 -0 -0 -0 -0 -0 -0 -0 -0 -0 -0 -0 -0 -0 -0
-156 -0 -0 -0 -0 -0 -1 -0 -0 -0 -0 -0 -0 -0 -0 -0 -0 -0 -0 -0 -0 -0 -0 -0 -0 -0 -0 -0 -0 -0 -0 -0 -0 -0 -0 -0 -0 -0 -0 -0 -0 -0 -0
-0 -0 -0 -0 -0 -0 -0 -0 -0 -0 -0 -0 -0 -0 -0 -0 -0 -0 -0 -0 -0 -0 -0 -0 -0 -0 -0 -0 -0 -0 -0 -0 -0 -0 -0 -0 -0 -0 -0 -0 -0 -0 -0
-0 -0 -0 -0 -0 -0 -0 -0 -0 -0 -0 -0 -0 -0 -0 -0 -0 -0 -0 -0 -0 -0 -0 -0 -0 -1 -16 -0 -0 -0 -0 -0 -0 -0 -0 -0 -0 -0 -0 -0 -0 -0 -0
-0 -0 -0 -0 -0 -0 -0 -0 -0 -0 -0 -0 -0 -0 -0 -0 -0 -0 -0 -0 -0 -0 -0 -0 -0 -4 -0 -0 -0 -0 -0 -0 -0 -0 -0 -0 -0 -0 -0 -0 -0 -0 -0
-0 -0 -0 -0 -0 -0 -0 -0 -0 -0 -0 -0 -0 -0 -0 -0 -0 -0 -0 -0 -0 -0 -0 -0 -0 -0 -0 -0 -4 -0 -0 -0 -0 -0 -0 -0 -0 -0 -0 -0 -0 -0 -0
-0 -0 -0 -0 -0 -0 -0 -0 -0 -0 -0 -0 -0 -0 -0 -0 -0 -0 -0 -0 -0 -0 -0 -0 -0 -0 -0 -1 -0 -0 -0 -0 -3 -0 -0 -0 -0 -0 -0 -0 -0 -0 -0
-0 -0 -0 -0 -0 -0 -0 -0 -0 -0 -0 -0 -0 -0 -0 -0 -0 -0 -0 -0 -0 -0 -0 -0 -0 -0 -4 -5 -0 -1 -0 -0 -6 -0 -0 -0 -0 -0 -0 -0 -0 -0 -0
-0 -0 -0 -0 -0 -0 -0 -0 -0 -0 -0 -0 -0 -0 -0 -0 -0 -0 -0 -0 -0 -0 -0 -0 -2 -7 -0 -0 -0 -0 -0 -0 -0 -0 -0 -0 -0 -0 -0 -0 -0 -0 -0
-0 -0 -0 -0 -0 -0 -0 -0 -0 -0 -0 -0 -0 -0 -0 -0 -0 -0 -0 -0 -0 -0 -0 -0 -0 -0 -0 -0 -0 -0 -0 -0 -1 -0 -0 -0 -0 -0 -0 -0 -0 -0 -0
-0 -0 -0 -0 -0 -0 -0 -0 -0 -0 -0 -0 -0 -0 -0 -0 -0 -0 -1 -2 -1 -0 -0 -0 -0 -4 -2 -0 -0 -0 -0 -0 -0 -0 -0 -0 -0 -0 -0 -0 -0 -0 -0
-0 -0 -0 -0 -0 -0 -0 -0 -0 -0 -0 -0 -0 -0 -0 -0 -0 -1 -6 -4 -5 -0 -0 -0 -0 -0 -0 -2 -0 -0 -0 -0 -0 -0 -0 -0 -0 -0 -0 -0 -0 -0 -0
-0 -0 -0 -0 -0 -0 -0 -0 -0 -0 -0 -0 -0 -0 -0 -0 -0 -0 -0 -0 -0 -0 -0 -0 -0 -1 -7 -5 -1 -0 -0 -0 -0 -0 -0 -0 -0 -0 -0 -0 -0 -0 -0
-0 -0 -0 -0 -0 -0 -0 -0 -0 -0 -0 -0 -0 -0 -0 -0 -0 -0 -0 -0 -0 -0 -0 -0 -0 -0 -0 -0 -0 -0 -0 -0 -0 -0 -0 -0 -0 -0 -0 -0 -0 -0 -0
-0 -0 -0 -0 -0 -0 -0 -0 -0 -0 -0 -0 -0 -0 -0 -0 -0 -0 -0 -0 -0 -0 -0 -0 -0 -0 -0 -0 -0 -0 -0 -0 -0 -0 -0 -0 -0 -0 -0 -0 -0 -0 -0
-0 -0 -0 -0 -0 -0 -0 -0 -0 -0 -0 -0 -0 -0 -0 -0 -0 -0 -0 -0 -0 -0 -0 -0 -0 -0 -0 -0 -0 -0 -0 -0 -0 -0 -0 -0 -0 -0 -0 -0 -0 -0 -0
-0 -0 -0 -0 -0 -0 -0 -0 -0 -0 -0 -0 -0 -0 -0 -0 -0 -0 -0 -0 -0 -0 -0 -0 -0 -0 -0 -0 -0 -0 -0 -0 -0 -0 -0 -0 -0 -0 -0 -0 -0 -0 -0
-0 -0 -0 -0 -0 -0 -0 -0 -0 -0 -0 -0 -0 -0 -0 -0 -0 -0 -0 -0 -0 -0 -0 -0 -0 -0 -0 -0 -0 -0 -0 -0 -0 -0 -0 -0 -0 -0 -0 -0 -0 -0 -0
-0 -0 -0 -0 -0 -0 -0 -0 -0 -0 -0 -0 -0 -0 -0 -0 -0 -0 -0 -0 -0 -0 -0 -0 -0 -0 -0 -0 -0 -0 -0 -0 -0 -0 -0 -0 -0 -0 -0 -0 -0 -0 -0
-0 -0 -0 -0 -0 -0 -0 -0 -0 -0 -0 -0 -0 -0 -0 -0 -0 -0 -0 -0 -0 -0 -0 -0 -0 -0 -0 -0 -0 -0 -0 -0 -0 -0 -0 -0 -0 -0 -0 -0 -0 -0 -0
-0 -0 -0 -0 -0 -0 -0 -0 -0 -0 -0 -0 -0 -0 -0 -0 -0 -0 -0 -0 -0 -0 -0 -0 -0 -0 -0 -0 -0 -0 -0 -0 -0 -0 -0 -0 -0 -0 -0 -0 -0 -0 -0
-0 -0 -0 -0 -0 -0 -0 -0 -0 -0 -0 -0 -0 -0 -0 -0 -0 -0 -0 -0 -0 -0 -0 -0 -0 -0 -0 -0 -0 -0 -0 -0 -0 -0 -0 -0 -0 -0 -0 -0 -0 -0 -0
-0 -0 -0 -0 -0 -0 -0 -0 -0 -0 -0 -0 -0 -0 -0 -0 -0 -0 -0 -0 -0 -0 -0 -0 -0 -0 -0 -0 -0 -0 -0 -0 -0 -0 -0 -0 -0 -0 -0 -0 -0 -0 -0
-0 -0 -0 -0 -0 -0 -0 -0 -0 -0 -0 -0 -0 -0 -0 -0 -0 -0 -0 -0 -0 -0 -0 -0 -0 -0 -0 -0 -0 -0 -0 -0 -0 -0 -0 -0 -0 -0 -0 -0 -0 -0 -0
-0 -0 -0 -0 -0 -0 -0 -0 -0 -0 -0 -0 -0 -0 -0 -0 -0 -0 -0 -0 -0 -0 -0 -0 -0 -0 -0 -0 -0 -0 -0 -0 -0 -0 -0 -0 -0 -0 -0 -0 -0 -0 -0
Wind_Speed
13 12 12 11 10 8 7 8 10 11 12 10 7 6 9 10 9 9 9 8 9 9 9 10 11 11 9 9 9 9 10 10 13 12 10 11 8 10 11 11 11 12 11
9 8 6 5 8 8 7 8 9 7 6 7 6 8 8 8 8 9 10 9 10 11 11 12 12 10 13 12 10 12 12 13 12 15 14 12 10 11 10 12 11 10 11
8 10 11 12 11 9 9 8 7 7 5 3 7 8 7 7 8 9 10 10 11 12 13 13 14 13 14 12 12 12 12 11 12 11 12 12 10 9 10 12 11 11 10
11 11 11 10 14 14 12 7 8 6 6 4 5 7 6 7 8 8 9 10 11 11 12 13 14 15 15 15 13 14 13 13 12 9 12 10 11 11 9 9 10 8 10
13 13 14 14 13 11 10 9 11 9 5 7 9 6 6 7 6 8 8 9 11 12 13 13 14 16 13 11 11 14 15 12 9 10 10 11 11 10 11 8 9 10 10
14 15 15 14 13 11 9 12 8 6 9 6 6 8 7 6 6 4 7 10 12 13 14 15 15 14 14 15 16 16 16 16 15 12 11 11 15 11 10 8 9 10 11
15 15 14 13 12 12 10 10 8 8 6 8 7 6 8 8 8 7 8 10 12 14 15 15 15 13 11 14 16 19 17 18 16 16 16 13 12 12 12 12 11 11 11
16 15 14 13 10 9 10 7 5 6 6 6 6 6 7 7 5 8 10 12 13 15 16 16 17 17 16 16 17 16 15 13 13 11 14 15 12 11 10 10 11 11 11
15 15 13 12 11 9 5 6 5 4 5 5 6 7 8 9 7 9 9 13 14 17 16 17 18 18 18 12 14 16 17 14 10 11 11 12 7 5 7 9 8 9 10
15 13 13 10 7 7 4 4 2 3 4 4 6 7 8 11 9 5 8 11 14 12 17 18 17 17 18 11 13 14 14 15 14 13 12 13 14 13 15 12 9 9 10
13 11 9 7 6 5 4 2 1 3 4 4 5 8 10 9 10 8 8 10 11 12 13 12 11 14 12 15 15 15 16 14 12 12 11 10 10 10 8 11 11 10 10
12 10 8 7 5 3 2 1 2 4 5 4 3 6 6 8 8 10 12 13 15 13 15 13 14 14 17 19 12 18 19 12 10 10 9 10 10 9 9 9 11 11 10
10 9 8 7 5 4 2 3 3 4 4 4 5 6 6 7 8 8 13 16 19 14 13 17 26 24 24 18 18 17 13 8 9 9 10 10 10 10 10 9 9 11 11
9 8 6 6 4 4 3 3 3 4 4 4 5 6 7 8 8 10 11 12 16 12 12 12 15 15 16 15 10 9 7 8 9 9 9 10 9 8 8 8 8 8 8
8 6 6 5 5 4 4 4 3 6 5 5 5 6 7 7 9 14 14 12 12 13 13 11 10 10 10 9 8 8 7 7 8 9 9 9 9 8 8 8 8 8 8
7 5 4 4 4 3 2 3 7 3 5 6 7 6 6 10 16 16 19 22 19 21 11 9 10 9 9 9 7 8 8 9 8 10 8 8 9 8 9 8 8 8 8
7 5 5 3 3 2 1 2 3 5 6 2 3 7 9 14 17 17 20 21 14 15 8 9 10 11 10 11 8 7 7 7 8 9 9 8 8 9 8 7 8 8 7
8 5 3 3 2 2 2 2 3 3 4 4 0 4 9 15 17 15 17 15 9 9 8 9 10 10 10 11 11 11 10 7 7 8 8 8 8 8 8 8 8 8 7
4 4 3 3 3 2 2 2 3 4 5 5 5 4 8 15 15 12 12 8 9 9 9 9 9 9 10 10 10 10 12 11 8 6 7 7 7 8 8 8 8 8 6
6 5 3 2 1 2 2 3 3 4 5 5 6 6 7 11 8 7 8 7 8 8 8 10 10 10 10 10 10 10 10 12 10 8 6 7 7 8 8 8 8 7 7
3 3 3 2 2 3 3 4 4 4 5 6 6 5 7 9 8 8 7 8 8 8 9 9 10 10 9 10 10 10 10 10 10 9 11 6 6 7 8 8 7 7 7
3 2 2 3 3 3 4 5 5 5 6 6 7 7 8 7 8 8 8 8 8 8 9 9 9 9 9 10 10 10 10 11 9 10 11 10 11 7 7 8 7 7 7
3 3 2 2 4 3 4 4 5 5 6 7 7 7 7 7 8 8 9 9 9 8 9 9 10 10 9 9 10 10 10 10 10 9 11 11 10 11 8 8 8 7 7
3 3 3 3 3 4 4 5 5 5 6 7 7 7 8 8 9 9 9 9 9 10 9 9 10 13 11 11 10 10 10 10 10 11 14 11 12 12 11 8 9 10 7
3 3 3 4 4 4 5 5 5 6 6 7 7 8 8 8 9 9 9 9 9 10 11 11 10 13 15 17 17 18 16 15 14 15 12 13 14 16 14 8 9 10 10
4 4 4 4 4 5 5 5 6 6 7 7 8 8 9 9 9 9 9 10 9 11 14 11 13 18 19 16 17 16 16 18 16 17 13 13 13 12 12 10 13 10 11
Wind_Direction
192 202 203 209 198 201 183 180 171 162 150 163 147 161 204 194 201 216 237 250 242 255 250 252 258 261 263 268 274 271 268 268 275 285 288 285 282 267 276 275 283 287 286
188 182 175 98 98 107 131 141 125 123 143 143 163 196 202 201 211 230 246 253 254 261 261 260 256 258 260 262 268 268 269 275 276 277 278 282 252 259 276 285 280 285 285
165 140 133 130 129 127 108 104 93 124 132 169 192 193 195 222 238 248 257 264 264 264 265 263 262 258 260 266 270 273 272 271 274 284 275 276 285 267 273 266 277 284 277
152 148 143 141 123 118 117 90 100 117 140 154 217 210 224 245 258 262 264 264 267 267 268 264 262 261 264 267 268 272 275 278 283 273 267 268 266 255 258 271 269 282 290
142 136 127 125 119 117 110 117 135 156 146 198 214 220 246 254 254 262 272 272 273 274 269 262 258 261 272 282 275 277 280 278 266 257 255 261 262 265 268 284 297 289 292
142 135 130 124 116 115 127 138 139 151 207 205 236 256 249 247 123 236 266 278 282 279 274 271 270 252 229 228 243 249 265 274 261 258 263 267 272 284 289 289 284 282 287
129 128 127 122 124 139 145 131 152 196 227 254 257 237 246 258 168 238 252 274 279 278 279 279 277 272 255 261 250 226 235 241 246 269 273 272 281 283 280 280 279 277 283
128 125 125 124 126 123 130 156 198 239 236 241 246 254 262 267 195 249 259 274 277 278 280 281 278 276 273 273 274 275 270 262 229 233 247 265 271 268 274 280 287 291 291
122 123 125 128 136 143 140 218 231 225 244 262 271 273 274 279 233 232 268 288 287 285 286 285 281 278 275 250 256 261 265 260 241 227 263 285 283 265 270 283 266 260 270
126 133 141 132 140 177 167 178 202 249 273 286 287 298 307 291 293 307 305 304 298 295 290 285 279 259 273 287 273 256 253 251 253 245 229 229 240 240 223 242 256 263 272
123 123 142 140 122 116 131 139 242 283 301 311 330 315 309 316 315 333 308 308 304 307 302 296 288 287 234 247 250 261 250 255 251 253 251 246 239 244 238 216 237 248 259
126 121 110 109 109 108 116 91 321 331 325 342 340 319 328 329 334 328 328 305 301 298 296 296 292 285 283 257 242 256 258 247 246 251 238 240 240 235 234 235 239 244 251
119 117 115 110 106 88 56 26 1 356 348 340 331 326 331 329 322 333 335 327 303 287 284 286 287 284 280 278 238 248 254 246 243 233 230 234 235 238 236 238 236 248 258
118 116 113 88 97 68 70 44 26 10 353 340 341 337 332 326 347 349 334 323 315 307 303 300 288 280 277 265 245 225 228 242 246 243 241 246 240 231 224 231 238 239 247
115 108 102 86 72 72 61 32 43 64 14 349 359 345 347 335 350 331 334 328 323 321 307 293 296 291 281 259 234 226 227 229 235 244 245 247 244 223 220 230 234 240 249
113 97 68 83 80 67 77 144 132 76 19 31 13 13 344 345 337 338 339 333 330 334 320 335 341 324 302 283 244 237 227 235 233 235 237 240 246 230 226 224 225 228 247
101 100 110 96 91 69 40 348 321 160 170 191 27 345 358 345 338 341 343 335 339 342 351 344 337 340 334 344 305 275 253 246 246 243 234 228 230 234 219 230 222 225 235
94 63 93 85 62 41 15 347 319 326 310 304 113 352 346 343 335 339 344 331 345 352 352 342 342 340 337 334 333 336 320 275 258 248 242 232 228 221 220 221 230 229 235
90 72 57 62 53 12 333 321 308 311 310 310 316 316 350 341 319 327 335 346 340 341 342 336 336 334 332 329 333 330 325 324 292 271 245 239 225 215 220 225 223 227 225
100 63 23 36 7 340 333 321 322 317 312 318 318 333 342 329 326 334 334 338 335 335 333 329 330 329 327 326 327 328 327 325 328 307 256 253 231 213 220 221 219 222 204
60 75 8 327 350 342 329 319 320 316 312 315 316 343 345 312 316 326 329 329 331 328 326 325 323 321 319 322 323 325 322 322 327 324 334 280 251 220 212 220 216 216 231
47 22 357 360 332 331 342 324 319 317 312 315 317 322 327 299 322 323 323 329 323 319 320 317 318 315 316 319 320 318 316 317 321 332 330 323 315 239 215 214 206 202 214
41 11 359 359 337 331 309 326 316 322 321 317 319 317 322 321 321 317 321 322 314 320 315 316 312 311 311 310 314 306 307 310 315 324 317 313 305 302 230 211 201 199 204
34 16 359 347 355 320 326 320 322 310 314 314 316 316 316 318 314 313 312 315 315 310 312 309 309 303 307 308 304 305 301 305 311 311 306 301 297 293 279 217 200 196 193
8 344 335 329 323 324 310 310 316 319 319 318 319 316 316 314 309 311 312 313 312 306 310 309 300 302 304 306 300 296 291 298 301 302 291 288 287 283 281 230 204 184 182
334 333 322 318 313 312 314 314 316 318 318 321 316 313 312 309 308 308 311 307 308 315 304 299 303 303 307 302 294 299 305 303 299 294 294 285 280 271 266 214 202 180 172